Meadow Lake, CO

2:56 AM MDT on July 23, 2017 (GMT -0600)
Meadow Lake

Weather History for KFLY - March, 2012

Change the Weather History Date:

Friday, March 30, 2012

  Actual Average (KCOS) Record (KCOS)
Temperature  
Mean Temperature 52 °F -  
Max Temperature 71 °F 52 °F 78 °F (2010)
Min Temperature 33 °F 26 °F -2 °F (1926)
Degree Days  
Heating Degree Days 13    
Growing Degree Days 2 (Base 50)    
Moisture  
Dew Point 19 °F    
Average Humidity 30    
Maximum Humidity 64    
Minimum Humidity 12    
Precipitation  
Precipitation 0.00 in - - ()
Sea Level Pressure  
Sea Level Pressure 29.99 in    
Wind  
Wind Speed 7 mph (WSW)    
Max Wind Speed 22 mph    
Max Gust Speed 28 mph    
Visibility 10 miles    
Events      
Averages and records for this station are not official NWS values.
T = Trace of Precipitation, MM = Missing Value Source: NWS Daily Summary

Daily Weather History Graph

Daily Weather History Graph

Search for Another Location

Airport or City:

Trip Planner

Search our weather history database for the weather conditions in past years. The results will help you decide how hot, cold, wet, or windy it might be!

Date:

Astronomy

Mar. 30, 2012 Rise Set
Actual Time 6:45 AM MDT 7:20 PM MDT
Civil Twilight 6:18 AM MDT 7:47 PM MDT
Nautical Twilight 5:46 AM MDT 8:19 PM MDT
Astronomical Twilight 5:14 AM MDT 8:51 PM MDT
Moon 11:55 AM MDT (3/30) 1:56 AM MDT (3/30)
Length of Visible Light 13h 29m
Length of Day
12h 35m
Waxing Crescent, 49% of the Moon is Illuminated
Mar 30
Waxing Crescent
Mar 30
First Quarter
Apr 6
Full
Apr 13
Last Quarter
Apr 21
New

Hourly Weather History & Observations

Time (MDT) Temp. Windchill Dew Point Humidity Pressure Visibility Wind Dir Wind Speed Gust Speed Precip Events Conditions
12:15 AM 47.1 °F - 20.8 °F 35% 30.01 in 10.0 mi SW 4.6 mph - N/A   Clear
12:35 AM 47.1 °F - 21.4 °F 36% 30.00 in 10.0 mi WSW 3.5 mph - N/A   Clear
12:55 AM 46.9 °F - 21.4 °F 36% 30.00 in 10.0 mi WSW 5.8 mph - N/A   Clear
1:15 AM 43.3 °F 41.7 °F 21.7 °F 42% 30.00 in 10.0 mi West 3.5 mph - N/A   Clear
1:35 AM 43.5 °F 39.4 °F 21.7 °F 42% 30.00 in 10.0 mi West 6.9 mph - N/A   Clear
1:55 AM 41.9 °F 36.9 °F 21.7 °F 45% 29.99 in 10.0 mi West 8.1 mph - N/A   Clear
2:15 AM 39.2 °F 37.0 °F 21.6 °F 49% 29.99 in 10.0 mi WSW 3.5 mph - N/A   Clear
2:35 AM 42.1 °F - 21.7 °F 44% 29.99 in 10.0 mi Calm Calm - N/A   Clear
2:55 AM 41.0 °F 38.0 °F 21.6 °F 46% 29.99 in 10.0 mi NE 4.6 mph - N/A   Clear
3:15 AM 37.6 °F 35.1 °F 21.7 °F 53% 29.99 in 10.0 mi NE 3.5 mph - N/A   Clear
3:35 AM 41.7 °F 38.0 °F 22.8 °F 47% 29.99 in 10.0 mi ENE 5.8 mph - N/A   Clear
3:55 AM 45.0 °F 39.3 °F 23.0 °F 42% 29.99 in 10.0 mi East 11.5 mph - N/A   Clear
4:15 AM 41.5 °F 37.1 °F 22.8 °F 47% 29.99 in 10.0 mi NNE 6.9 mph - N/A   Clear
4:35 AM 38.3 °F - 21.7 °F 51% 29.99 in 10.0 mi Calm Calm - N/A   Clear
4:55 AM 38.8 °F 35.4 °F 23.0 °F 53% 29.99 in 10.0 mi North 4.6 mph - N/A   Clear
5:15 AM 33.8 °F 27.0 °F 22.8 °F 64% 29.99 in 10.0 mi WNW 8.1 mph - N/A   Clear
5:35 AM 38.7 °F 35.2 °F 23.5 °F 55% 29.99 in 10.0 mi NW 4.6 mph - N/A   Clear
5:55 AM 34.7 °F 30.6 °F 23.4 °F 63% 29.99 in 10.0 mi NW 4.6 mph - N/A   Clear
6:15 AM 35.4 °F 29.7 °F 23.9 °F 63% 30.00 in 10.0 mi NNW 6.9 mph - N/A   Clear
6:35 AM 35.4 °F 29.7 °F 22.8 °F 60% 29.99 in 10.0 mi NW 6.9 mph - N/A   Clear
6:55 AM 37.2 °F 31.9 °F 22.3 °F 55% 30.00 in 10.0 mi NW 6.9 mph - N/A   Clear
7:15 AM 37.0 °F 31.0 °F 22.5 °F 56% 30.01 in 10.0 mi NW 8.1 mph - N/A   Clear
7:35 AM 41.5 °F 35.9 °F 22.8 °F 47% 30.02 in 10.0 mi WNW 9.2 mph - N/A   Clear
7:55 AM 49.1 °F - 20.3 °F 32% 30.01 in 10.0 mi West 8.1 mph - N/A   Clear
8:15 AM 52.3 °F - 19.9 °F 28% 30.02 in 10.0 mi WNW 6.9 mph - N/A   Clear
8:35 AM 55.0 °F - 19.2 °F 25% 30.02 in 10.0 mi West 11.5 mph 17.3 mph N/A   Clear
8:55 AM 58.1 °F - 17.8 °F 21% 30.03 in 10.0 mi West 16.1 mph 19.6 mph N/A   Clear
9:15 AM 59.2 °F - 17.1 °F 19% 30.03 in 10.0 mi WNW 16.1 mph 25.3 mph N/A   Clear
9:35 AM 60.3 °F - 17.2 °F 19% 30.03 in 10.0 mi NW 12.7 mph 20.7 mph N/A   Clear
9:55 AM 59.9 °F - 17.2 °F 19% 30.03 in 10.0 mi West 15.0 mph 19.6 mph N/A   Clear
10:35 AM 61.0 °F - 16.3 °F 18% 30.04 in 10.0 mi North 4.6 mph 17.3 mph N/A   Clear
10:55 AM 63.1 °F - 17.4 °F 17% 30.03 in 10.0 mi West 10.4 mph 19.6 mph N/A   Clear
11:15 AM 64.0 °F - 15.8 °F 15% 30.03 in 10.0 mi WNW 11.5 mph 20.7 mph N/A   Clear
11:35 AM 64.6 °F - 15.8 °F 15% 30.02 in 10.0 mi SW 5.8 mph - N/A   Clear
11:55 AM 66.0 °F - 16.3 °F 15% 30.01 in 10.0 mi SW 10.4 mph 18.4 mph N/A   Clear
12:15 PM 66.2 °F - 16.2 °F 15% 30.01 in 10.0 mi West 12.7 mph 18.4 mph N/A   Clear
12:35 PM 67.1 °F - 16.3 °F 14% 30.01 in 10.0 mi NW 6.9 mph 18.4 mph N/A   Clear
12:55 PM 67.5 °F - 16.0 °F 14% 30.00 in 10.0 mi South 8.1 mph 16.1 mph N/A   Clear
1:15 PM 67.8 °F - 15.8 °F 14% 30.00 in 10.0 mi SSW 6.9 mph 21.9 mph N/A   Clear
1:35 PM 68.5 °F - 16.0 °F 13% 29.98 in 10.0 mi West 6.9 mph - N/A   Clear
1:55 PM 68.9 °F - 16.2 °F 13% 29.98 in 10.0 mi SSE 5.8 mph 17.3 mph N/A   Clear
2:15 PM 68.9 °F - 16.0 °F 13% 29.97 in 10.0 mi SSW 15.0 mph 20.7 mph N/A   Clear
2:35 PM 69.8 °F - 16.3 °F 13% 29.97 in 10.0 mi SSE 9.2 mph 16.1 mph N/A   Clear
2:55 PM 70.5 °F - 16.3 °F 13% 29.96 in 10.0 mi WSW 6.9 mph 19.6 mph N/A   Clear
3:15 PM 70.5 °F - 16.0 °F 12% 29.96 in 10.0 mi SSE 9.2 mph 18.4 mph N/A   Clear
3:35 PM 70.3 °F - 15.8 °F 12% 29.95 in 10.0 mi South 12.7 mph 24.2 mph N/A   Clear
3:55 PM 70.3 °F - 15.6 °F 12% 29.95 in 10.0 mi South 18.4 mph 26.5 mph N/A   Clear
4:15 PM 70.5 °F - 15.8 °F 12% 29.95 in 10.0 mi South 17.3 mph 25.3 mph N/A   Clear
4:35 PM 70.9 °F - 16.0 °F 12% 29.95 in 10.0 mi SSE 10.4 mph 21.9 mph N/A   Clear
4:55 PM 70.5 °F - 16.3 °F 13% 29.95 in 10.0 mi SSE 15.0 mph 24.2 mph N/A   Clear
5:15 PM 71.4 °F - 16.0 °F 12% 29.94 in 10.0 mi South 21.9 mph 27.6 mph N/A   Clear
5:35 PM 70.9 °F - 15.6 °F 12% 29.94 in 10.0 mi South 17.3 mph 27.6 mph N/A   Clear
5:55 PM 69.6 °F - 15.6 °F 13% 29.94 in 10.0 mi South 12.7 mph 23.0 mph N/A   Clear
6:15 PM 68.2 °F - 14.9 °F 13% 29.94 in 10.0 mi South 13.8 mph 25.3 mph N/A   Clear
6:35 PM 66.6 °F - 14.5 °F 13% 29.94 in 10.0 mi South 16.1 mph 23.0 mph N/A   Clear
6:55 PM 63.5 °F - 14.0 °F 15% 29.95 in 10.0 mi SSE 12.7 mph 19.6 mph N/A   Clear
7:15 PM 58.8 °F - 14.5 °F 18% 29.95 in 10.0 mi SE 9.2 mph - N/A   Clear
7:35 PM 56.3 °F - 14.7 °F 19% 29.96 in 10.0 mi SSE 4.6 mph - N/A   Clear
7:55 PM 54.9 °F - 14.5 °F 20% 29.96 in 10.0 mi SE 6.9 mph - N/A   Clear
8:15 PM 54.7 °F - 14.7 °F 21% 29.97 in 10.0 mi SSE 6.9 mph - N/A   Clear
8:35 PM 52.9 °F - 14.7 °F 22% 29.99 in 10.0 mi Calm Calm - N/A   Clear
8:55 PM 50.0 °F - 15.6 °F 25% 30.00 in 10.0 mi West 4.6 mph - N/A   Clear
9:15 PM 53.4 °F - 15.6 °F 22% 30.01 in 10.0 mi SSW 5.8 mph - N/A   Clear
9:35 PM 50.9 °F - 16.7 °F 26% 30.01 in 10.0 mi WSW 6.9 mph - N/A   Clear
9:55 PM 53.1 °F - 16.3 °F 23% 30.01 in 10.0 mi SSW 10.4 mph - N/A   Clear
10:15 PM 50.0 °F - 16.5 °F 26% 30.01 in 10.0 mi West 6.9 mph 16.1 mph N/A   Clear
10:35 PM 49.6 °F - 16.0 °F 26% 30.01 in 10.0 mi WSW 5.8 mph - N/A   Clear
10:55 PM 51.8 °F - 16.3 °F 25% 30.01 in 10.0 mi SSW 12.7 mph 18.4 mph N/A   Clear
11:15 PM 49.5 °F - 16.3 °F 27% 30.01 in 10.0 mi SSW 3.5 mph - N/A   Clear
11:35 PM 51.3 °F - 15.8 °F 25% 30.02 in 10.0 mi Calm Calm - N/A   Clear
11:55 PM 51.1 °F - 15.8 °F 25% 30.02 in 10.0 mi Calm Calm - N/A   Clear